Weather History for Willmar, MN

Change the Weather History Date:

Saturday, April 21, 2012

  Actual Average (KLJF) Record (KLJF)
Temperature  
Mean Temperature 47 °F -  
Max Temperature 50 °F 60 °F 93 °F (1980)
Min Temperature 42 °F 36 °F 24 °F (1966)
Degree Days  
Heating Degree Days 18    
Moisture  
Dew Point 42 °F    
Average Humidity 86    
Maximum Humidity 100    
Minimum Humidity 62    
Precipitation  
Precipitation 0.29 in - - ()
Sea Level Pressure  
Sea Level Pressure 29.94 in    
Wind  
Wind Speed 7 mph (SSW)    
Max Wind Speed 20 mph    
Max Gust Speed 28 mph    
Visibility 9 miles    
Events Rain , Thunderstorm    
Averages and records for this station are not official NWS values.
T = Trace of Precipitation, MM = Missing Value Source: NWS Daily Summary

Daily Weather History Graph

Daily Weather History Graph

Search for Another Location

Airport:

Trip Planner

Search our weather history database for the weather conditions in past years. The results will help you decide how hot, cold, wet, or windy it might be!

Date:

Astronomy

Apr. 21, 2012 Rise Set
Actual Time 6:24 AM CDT 8:14 PM CDT
Civil Twilight 5:53 AM CDT 8:45 PM CDT
Nautical Twilight 5:14 AM CDT 9:24 PM CDT
Astronomical Twilight 4:33 AM CDT 10:06 PM CDT
Moon 6:18 AM CDT (4/21) 9:00 PM CDT (4/21)
Length of Visible Light 14h 52m
Length of Day
13h 49m
New Moon, 0% of the Moon is Illuminated
Apr 21
New Moon
Apr 29
First Quarter
May 5
Full
May 12
Last Quarter
May 20
New

Hourly Weather History & Observations

Time (CDT) Temp. Windchill Dew Point Humidity Pressure Visibility Wind Dir Wind Speed Gust Speed Precip Events Conditions
12:07 AM 50.0 °F - 37.4 °F 62% 30.01 in 10.0 mi SSE 5.8 mph - N/A   Overcast
12:26 AM 50.0 °F - 37.4 °F 62% 30.01 in 10.0 mi South 4.6 mph - N/A   Overcast
12:47 AM 50.0 °F - 37.4 °F 62% 30.01 in 10.0 mi South 3.5 mph - N/A   Overcast
1:07 AM 50.0 °F - 37.4 °F 62% 30.00 in 10.0 mi South 4.6 mph - N/A   Overcast
1:26 AM 48.2 °F - 37.4 °F 66% 30.00 in 10.0 mi Calm Calm - N/A   Overcast
1:47 AM 48.2 °F - 37.4 °F 66% 30.00 in 4.0 mi Calm Calm - N/A   Haze
2:06 AM 48.2 °F - 37.4 °F 66% 29.99 in 10.0 mi South 3.5 mph - N/A   Overcast
2:27 AM 48.2 °F - 37.4 °F 66% 29.98 in 10.0 mi South 3.5 mph - N/A   Mostly Cloudy
3:06 AM 46.4 °F 44.3 °F 37.4 °F 71% 29.98 in 10.0 mi SSW 4.6 mph - N/A   Overcast
3:27 AM 46.4 °F 45.2 °F 37.4 °F 71% 29.98 in 10.0 mi South 3.5 mph - N/A   Mostly Cloudy
3:47 AM 46.4 °F 45.2 °F 37.4 °F 71% 29.98 in 10.0 mi South 3.5 mph - N/A   Mostly Cloudy
4:06 AM 46.4 °F 45.2 °F 37.4 °F 71% 29.98 in 10.0 mi South 3.5 mph - N/A   Overcast
4:27 AM 46.4 °F - 37.4 °F 71% 29.97 in 10.0 mi Calm Calm - N/A   Overcast
4:47 AM 46.4 °F 45.2 °F 37.4 °F 71% 29.97 in 10.0 mi South 3.5 mph - N/A   Overcast
5:06 AM 46.4 °F 44.3 °F 37.4 °F 71% 29.96 in 10.0 mi South 4.6 mph - N/A   Overcast
5:27 AM 46.4 °F 42.9 °F 37.4 °F 71% 29.96 in 10.0 mi South 6.9 mph - N/A   Light Drizzle
5:47 AM 46.4 °F 43.5 °F 37.4 °F 71% 29.95 in 10.0 mi SSW 5.8 mph - N/A   Overcast
6:06 AM 46.4 °F 45.2 °F 37.4 °F 71% 29.95 in 10.0 mi South 3.5 mph - N/A   Overcast
6:27 AM 46.4 °F 43.5 °F 37.4 °F 71% 29.95 in 10.0 mi South 5.8 mph - N/A Rain Light Rain
6:47 AM 44.6 °F 42.2 °F 39.2 °F 81% 29.95 in 10.0 mi South 4.6 mph - N/A   Drizzle
7:06 AM 44.6 °F 42.2 °F 39.2 °F 81% 29.95 in 10.0 mi South 4.6 mph - N/A   Drizzle
7:27 AM 44.6 °F 42.2 °F 39.2 °F 81% 29.95 in 7.0 mi South 4.6 mph - N/A Rain Rain
7:47 AM 44.6 °F 42.2 °F 41.0 °F 87% 29.95 in 10.0 mi South 4.6 mph - 0.01 in Rain Light Rain
8:06 AM 44.6 °F 42.2 °F 41.0 °F 87% 29.95 in 7.0 mi SSW 4.6 mph - N/A   Drizzle
8:27 AM 44.6 °F 42.2 °F 42.8 °F 93% 29.95 in 7.0 mi South 4.6 mph - 0.01 in Rain Light Rain
8:47 AM 44.6 °F 40.2 °F 42.8 °F 93% 29.94 in 10.0 mi SSW 8.1 mph - 0.02 in Rain Light Rain
9:06 AM 44.6 °F 40.2 °F 42.8 °F 93% 29.95 in 10.0 mi SSW 8.1 mph 16.1 mph N/A Rain Rain
9:26 AM 44.6 °F 40.2 °F 42.8 °F 93% 29.95 in 7.0 mi SSW 8.1 mph - 0.01 in Rain Light Rain
9:47 AM 44.6 °F 41.4 °F 44.6 °F 100% 29.95 in 5.0 mi SSW 5.8 mph 17.3 mph 0.05 in Rain Heavy Rain
10:06 AM 44.6 °F 40.7 °F 44.6 °F 100% 29.95 in 7.0 mi SSW 6.9 mph - 0.02 in Rain Rain
10:26 AM 44.6 °F 42.2 °F 44.6 °F 100% 29.95 in 4.0 mi SSW 4.6 mph - 0.06 in Rain Rain
10:47 AM 44.6 °F 41.4 °F 44.6 °F 100% 29.94 in 7.0 mi South 5.8 mph - 0.10 in Rain Light Rain
11:06 AM 44.6 °F 41.4 °F 44.6 °F 100% 29.93 in 5.0 mi South 5.8 mph - 0.01 in Rain Light Rain
11:26 AM 44.6 °F 43.1 °F 44.6 °F 100% 29.93 in 7.0 mi South 3.5 mph - 0.03 in Rain Light Rain
11:47 AM 44.6 °F 39.7 °F 44.6 °F 100% 29.93 in 10.0 mi SSE 9.2 mph - 0.04 in Rain Light Rain
12:06 PM 44.6 °F 38.8 °F 42.8 °F 93% 29.92 in 7.0 mi South 11.5 mph 17.3 mph 0.01 in Rain Light Rain
12:27 PM 44.6 °F 38.1 °F 44.6 °F 100% 29.92 in 10.0 mi SSE 13.8 mph 21.9 mph 0.03 in Rain Light Rain
12:46 PM 44.6 °F 38.4 °F 42.8 °F 93% 29.91 in 10.0 mi SSE 12.7 mph 19.6 mph 0.03 in   Overcast
1:07 PM 44.6 °F 39.2 °F 42.8 °F 93% 29.91 in 10.0 mi South 10.4 mph 20.7 mph N/A   Overcast
1:47 PM 46.4 °F 41.5 °F 44.6 °F 93% 29.89 in 10.0 mi SSE 10.4 mph 21.9 mph N/A   Mostly Cloudy
2:07 PM 46.4 °F 41.1 °F 44.6 °F 93% 29.89 in 10.0 mi South 11.5 mph 19.6 mph N/A   Overcast
2:26 PM 48.2 °F - 44.6 °F 87% 29.89 in 10.0 mi SSE 13.8 mph 19.6 mph N/A   Overcast
2:47 PM 48.2 °F - 46.4 °F 93% 29.88 in 10.0 mi SSE 13.8 mph 23.0 mph N/A   Mostly Cloudy
3:06 PM 50.0 °F - 46.4 °F 87% 29.86 in 10.0 mi SSE 18.4 mph 25.3 mph N/A Thunderstorm Scattered Clouds
3:26 PM 50.0 °F - 46.4 °F 87% 29.87 in 10.0 mi SSE 16.1 mph 23.0 mph N/A   Scattered Clouds
3:47 PM 48.2 °F - 46.4 °F 93% 29.86 in 10.0 mi SSE 16.1 mph - N/A Rain Light Rain
4:06 PM 48.2 °F - 46.4 °F 93% 29.86 in 10.0 mi SSE 17.3 mph 21.9 mph N/A Rain Light Rain
4:26 PM 48.2 °F - 46.4 °F 93% 29.85 in 10.0 mi SSE 17.3 mph - 0.01 in Rain , Thunderstorm Light Thunderstorms and Rain
4:47 PM 48.2 °F - 46.4 °F 93% 29.84 in 10.0 mi SSE 16.1 mph 23.0 mph 0.02 in Rain Light Rain
5:27 PM 48.2 °F - 46.4 °F 93% 29.86 in 10.0 mi South 10.4 mph - N/A Rain Light Rain
5:46 PM 48.2 °F - 46.4 °F 93% 29.87 in 10.0 mi SSW 6.9 mph 18.4 mph N/A   Overcast
6:07 PM 48.2 °F - 44.6 °F 87% 29.88 in 10.0 mi SSW 4.6 mph - N/A   Overcast
6:26 PM 48.2 °F - 44.6 °F 87% 29.89 in 10.0 mi West 5.8 mph 16.1 mph N/A   Light Drizzle
6:47 PM 48.2 °F - 44.6 °F 87% 29.89 in 10.0 mi NW 15.0 mph 19.6 mph N/A   Overcast
7:07 PM 48.2 °F - 42.8 °F 82% 29.90 in 10.0 mi NW 18.4 mph 23.0 mph N/A   Overcast
7:26 PM 48.2 °F - 42.8 °F 82% 29.90 in 10.0 mi NW 15.0 mph - N/A   Overcast
7:47 PM 46.4 °F 40.1 °F 42.8 °F 87% 29.90 in 7.0 mi NW 15.0 mph 19.6 mph N/A   Drizzle
8:07 PM 46.4 °F 40.4 °F 44.6 °F 93% 29.91 in 10.0 mi WNW 13.8 mph 19.6 mph N/A   Overcast
8:26 PM 46.4 °F 41.1 °F 44.6 °F 93% 29.91 in 10.0 mi WNW 11.5 mph - N/A   Mostly Cloudy
8:47 PM 46.4 °F 41.9 °F 44.6 °F 93% 29.92 in 10.0 mi WNW 9.2 mph - N/A   Overcast
9:07 PM 46.4 °F 43.5 °F 44.6 °F 93% 29.93 in 10.0 mi WNW 5.8 mph - N/A   Drizzle
9:26 PM 46.4 °F 41.9 °F 44.6 °F 93% 29.94 in 10.0 mi WNW 9.2 mph - N/A   Overcast
9:47 PM 46.4 °F 40.1 °F 44.6 °F 93% 29.94 in 10.0 mi NW 15.0 mph - N/A   Overcast
10:07 PM 46.4 °F 39.5 °F 44.6 °F 93% 29.95 in 10.0 mi NW 17.3 mph - N/A   Overcast
10:26 PM 44.6 °F 38.1 °F 44.6 °F 100% 29.96 in 5.0 mi WNW 13.8 mph 21.9 mph 0.01 in Rain Light Rain
10:47 PM 44.6 °F 37.8 °F 44.6 °F 100% 29.96 in 7.0 mi WNW 15.0 mph 19.6 mph 0.02 in Rain Light Rain
11:07 PM 44.6 °F 37.8 °F 42.8 °F 93% 29.97 in 10.0 mi NW 15.0 mph - N/A   Overcast
11:26 PM 44.6 °F 37.2 °F 42.8 °F 93% 29.98 in 10.0 mi NW 17.3 mph 27.6 mph N/A   Overcast
11:47 PM 42.8 °F 34.3 °F 42.8 °F 100% 29.99 in 10.0 mi NW 19.6 mph - N/A   Overcast